Aérodrome :
LOGIN :

S'inscrire | Disclaimer

   EN    FR    IT 

 










Légende :    VFR   VFR Marginal   IFR   IFR Intensif   IFR Très Intensif
Visi : 
Plafond : 
>= 8 km
>= 3000ft
5 à 8 km
1000 à 3000 ft
1500m à 5 km
500 à 1000 ft
800 à 1500m
200 à 500 ft
< 800m
< 200 ft
Symboles :   Orages  Brouillard  Fortes neiges  Fortes précipitations  Vent > 20 kt
SIGMETs :   Divers  Orages  Givrage  Turbulence  Onde Orograph.  Cendres Volcan.







- Altitude de l'aérodrome : 1548 ft


LKNA - Náměšť Air Base

DERNIER METAR :
  • 240500Z 34005KT 7000 NSC 06/04 Q1024 NOSIG RMK WHT WHT

METARs EXPIRÉS :
  • 240400Z 35005KT 330V040 9000 FEW040 07/05 Q1024 NOSIG RMK BLU BLU
  • 240300Z 34008KT 9000 NSC 08/05 Q1024

TAF TAF LKNA
Valide du 24 à 00h jusqu'au 25 à 00h UTC


232300Z 2400/2500 01004KT CAVOK
TEMPO 2402/2407 4000 BR NSC
PROB30
TEMPO 2403/2407 1200 MIFG BR BKN010
BECMG 2406/2408 18005KT 9999 BKN025
BECMG 2418/2420 33008KT
Pas de NOTAMs connus pour ce terrain.



MET'MAP, la Météo Aéronautique d'un coup d'oeil ! - Copyright ORBIFLY Décembre 2007 - Disclaimer

ORBIFLY MET'MAP TEAM :

Programmation & Développement : Alexandra Zaïnal
Conception & Développement : Baudouin d'Aumeries
Co-Programmation & Développement : Marc-Olivier Méhu
Soutien technique & logistique : Manuel Goepfert

Contact : metmap@orbifly.com




SOURCES & CREDITS :

   NOAA